Location: Chuathbaluk
(61.5726°N, 159.2454°W)
Time: 17:16:54
(UTC+00:00)

NOAA 15 - Pass Details

Date: 25 January 2021
Orbit: 798 x 812 km, 98.7° (Epoch: 05 March)

Event Time Altitude Azimuth Distance (km) Brightness Sun altitude
Rises 07:23:42 0° 233° (SW) 3,313 8.1 -34.4°
Reaches altitude 10° 07:28:07 10° 268° (W) 2,393 7.7 -34.9°
Maximum altitude 07:29:35 11° 285° (WNW) 2,322 7.7 -35.1°
Drops below altitude 10° 07:31:03 10° 301° (WNW) 2,400 7.8 -35.2°
Sets 07:35:31 0° 336° (NNW) 3,342 8.5 -35.7°
